User: anonymous   Login
Location: Unspecified
(0.0000°N, 0.0000°E)
Time: 02:59:11
(UTC+00:00)
Language:

BEESAT 3 - Orbit

View from above orbital plane
View from above orbital plane
View from above satellite
View from above satellite

Ground track
Ground track

The orbit data is extracted from the following two-line orbital elements,

1 39134U 13015E   20185.81319279 +.00000642 +00000-0 +37754-4 0  9998
2 39134 064.8617 224.8025 0032161 240.9485 118.8420 15.21096340398164
Epoch (UTC): 03 July 2020 19:30:59
Eccentricity: 0.0032161
inclination: 64.8617°
perigee height: 480 km
apogee height: 524 km
right ascension of ascending node: 224.8025°
argument of perigee: 240.9485°
revolutions per day: 15.21096340
mean anomaly at epoch: 118.8420°
orbit number at epoch: 39816

The dashed part of the orbit path shows where the satellite is in the earth's shadow,  

DLR